Location: Newark
(14.6333°N, 90.5000°W)
Time: 00:04:31
(UTC+00:00)

LightSail 2 - Visible Passes

Search period start: 21 November 2019 00:00
Search period end: 01 December 2019 00:00
Orbit: 699 x 728 km, 24.0° (Epoch: 20 November)

Date Brightness Start Highest point End Pass type
(mag) Time Alt. Az. Time Alt. Az. Time Alt. Az.
21 Nov 7.8 02:09:18 10° SW 02:09:58 13° SW 02:09:58 13° SW visible
21 Nov 7.7 09:21:05 16° E 09:21:05 16° E 09:22:12 10° E visible
21 Nov 5.2 11:00:04 26° WNW 11:02:58 75° SSW 11:08:10 10° ESE visible
22 Nov 6.6 01:11:57 10° SSW 01:15:44 24° SSE 01:15:44 24° SSE visible
22 Nov 5.4 10:05:49 64° E 10:05:49 64° E 10:10:14 10° ESE visible
23 Nov 7.1 00:14:54 10° SSW 00:18:08 17° SSE 00:21:22 10° ESE visible
23 Nov 7.2 01:58:31 10° WSW 02:00:29 23° SW 02:00:29 23° SW visible
23 Nov 8.0 09:11:34 13° E 09:11:34 13° E 09:12:11 10° E visible
23 Nov 5.8 10:50:33 29° WSW 10:52:37 43° SSW 10:57:31 10° SE visible
24 Nov 5.7 01:00:50 10° SW 01:05:38 42° SSE 01:06:14 40° SE visible
24 Nov 6.2 09:56:19 41° SE 09:56:19 41° SE 09:59:48 10° ESE visible
24 Nov 7.1 11:36:43 10° WSW 11:40:07 17° SSW 11:43:31 10° SSE visible
25 Nov 6.4 00:03:19 10° SW 00:07:45 30° SSE 00:11:59 11° E visible
25 Nov 6.6 01:48:05 10° WSW 01:50:58 34° WSW 01:50:58 34° WSW visible
25 Nov 6.5 10:41:03 23° SW 10:42:12 25° SSW 10:46:24 10° SSE visible
26 Nov 5.1 00:50:10 10° WSW 00:55:16 73° SSE 00:56:42 46° E visible
26 Nov 7.1 09:46:47 22° SSE 09:46:47 22° SSE 09:48:59 10° SE visible
26 Nov 5.6 23:52:22 10° SW 23:57:21 52° SSE 00:02:18 10° E visible
27 Nov 6.2 01:37:55 10° W 01:41:24 39° WNW 01:41:24 39° WNW visible
27 Nov 7.2 10:31:28 14° SSW 10:31:49 14° SSW 10:34:25 10° S visible
28 Nov 5.2 00:39:49 10° WSW 00:44:56 70° NNW 00:47:05 34° NE visible
28 Nov 7.8 09:37:10 12° SSE 09:37:10 12° SSE 09:37:36 10° SSE visible
29 Nov 6.2 01:27:56 10° W 01:31:45 35° NW 01:31:45 35° NW visible
30 Nov 5.7 00:29:42 10° W 00:34:39 47° NNW 00:37:24 24° NE visible
30 Nov 8.0 02:16:15 10° WNW 02:16:23 11° WNW 02:16:23 11° WNW visible
